QPF
0.00 0.00 0.00 0.00 0.00 0.00 0.00 0.00 0.00 0.00 0.00 0.00 0.00 0.00 0.00 0.00 0.00 0.00 0.00 0.00 0.00 0.00 0.00 0.00 0.00 0.00 0.00 0.00 0.00 0.00 0.00 0.00 0.00 0.00 0.00 0.00 0.00 0.00 0.00 0.00 0.00 0.00 0.00 0.00 0.00
0.00 0.00 0.00 0.00 0.00 0.00 0.00 0.00 0.00 0.00 0.00 0.00 0.00 0.00 0.00 0.00 0.00 0.00 0.00 0.00 0.00 0.00 0.00 0.00 0.00 0.00 0.00 0.00 0.00 0.00 0.00 0.00 0.00 0.00 0.00 0.00 0.00 0.00 0.00 0.00 0.00 0.00 0.00 0.00 0.00
0.00 0.00 0.00 0.00 0.00 0.00 0.00 0.00 0.00 0.00 0.00 0.00 0.00 0.00 0.00 0.00 0.00 0.00 0.00 0.00 0.00 0.00 0.00 0.00 0.00 0.00 0.00 0.00 0.00 0.00 0.00 0.00 0.00 0.00 0.00 0.00 0.00 0.00 0.00 0.00 0.00 0.00 0.00 0.00 0.00
0.00 0.00 0.00 0.00 0.00 0.00 0.00 0.00 0.00 0.00 0.00 0.00 0.00 0.00 0.00 0.00 0.00 0.00 0.00 0.00 0.00 0.00 0.00 0.00 0.00 0.00 0.00 0.00 0.00 0.00 0.00 0.00 0.00 0.00 0.00 0.00 0.00 0.00 0.00 0.00 0.00 0.00 0.00 0.00 0.00
0.00 0.00 0.00 0.00 0.00 0.00 0.00 0.00 0.00 0.00 0.00 0.00 0.00 0.00 0.00 0.00 0.00 0.00 0.00 0.00 0.00 0.00 0.00 0.00 0.00 0.00 0.00 0.00 0.00 0.00 0.00 0.00 0.00 0.00 0.00 0.00 0.00 0.00 0.00 0.00 0.00 0.00 0.00 0.00 0.00
0.00 0.00 0.00 0.00 0.00 0.00 0.00 0.00 0.00 0.00 0.00 0.00 0.00 0.00 0.00 0.00 0.00 0.00 0.00 0.00 0.00 0.00 0.00 0.00 0.00 0.00 0.00 0.00 0.00 0.00 0.00 0.00 0.00 0.00 0.00 0.00 0.00 0.00 0.00 0.00 0.00 0.00 0.00 0.00 0.00
0.00 0.00 0.00 0.00 0.00 0.00 0.00 0.00 0.00 0.00 0.00 0.00 0.00 0.00 0.00 0.00 0.00 0.00 0.00 0.00 0.00 0.00 0.00 0.00 0.00 0.00 0.00 0.00 0.00 0.00 0.00 0.00 0.00 0.00 0.00 0.00 0.00 0.00 0.00 0.00 0.00 0.00 0.00 0.00 0.00
0.00 0.00 0.00 0.00 0.00 0.00 0.00 0.00 0.00 0.00 0.00 0.00 0.00 0.00 0.00 0.00 0.00 0.00 0.00 0.00 0.00 0.00 0.00 0.00 0.00 0.00 0.00 0.00 0.00 0.00 0.00 0.00 0.00 0.00 0.00 0.00 0.00 0.00 0.00 0.00 0.00 0.00 0.00 0.00 0.00
0.00 0.00 0.00 0.00 0.00 0.00 0.00 0.00 0.00 0.00 0.00 0.00 0.00 0.00 0.00 0.00 0.00 0.00 0.00 0.00 0.00 0.00 0.00 0.00 0.00 0.00 0.00 0.00 0.00 0.00 0.00 0.00 0.00 0.00 0.00 0.00 0.00 0.00 0.00 0.00 0.00 0.00 0.00 0.00 0.00
0.00 0.00 0.00 0.00 0.00 0.00 0.00 0.00 0.00 0.00 0.00 0.00 0.00 0.00 0.00 0.00 0.00 0.00 0.00 0.00 0.00 0.00 0.00 0.00 0.00 0.00 0.00 0.00 0.00 0.00 0.00 0.00 0.00 0.00 0.00 0.00 0.00 0.00 0.00 0.00 0.00 0.00 0.00 0.00 0.00
0.00 0.00 0.00 0.00 0.00 0.00 0.00 0.00 0.00 0.00 0.00 0.00 0.00 0.00 0.00 0.00 0.00 0.00 0.00 0.00 0.00 0.00 0.00 0.00 0.00 0.00 0.00 0.00 0.00 0.00 0.00 0.00 0.00 0.00 0.00 0.00 0.00 0.00 0.00 0.00 0.00 0.00 0.00 0.00 0.00
0.00 0.00 0.00 0.00 0.00 0.00 0.00 0.00 0.00 0.00 0.00 0.00 0.00 0.00 0.00 0.00 0.00 0.00 0.00 0.00 0.00 0.00 0.00 0.00 0.00 0.00 0.00 0.00 0.00 0.00 0.00 0.00 0.00 0.00 0.00 0.00 0.00 0.00 0.00 0.00 0.00 0.00 0.00 0.00 0.00
0.00 0.00 0.00 0.00 0.00 0.00 0.00 0.00 0.00 0.00 0.00 0.00 0.00 0.00 0.00 0.00 0.00 0.00 0.00 0.00 0.00 0.00 0.00 0.00 0.00 0.00 0.00 0.00 0.00 0.00 0.00 0.00 0.00 0.00 0.00 0.00 0.00 0.00 0.00 0.00 0.00 0.00 0.00 0.00 0.00
0.00 0.00 0.00 0.00 0.00 0.00 0.00 0.00 0.00 0.00 0.00 0.00 0.00 0.00 0.00 0.00 0.00 0.00 0.00 0.00 0.00 0.00 0.00 0.00 0.00 0.00 0.00 0.00 0.00 0.00 0.00 0.00 0.00 0.00 0.00 0.00 0.00 0.00 0.00 0.00 0.00 0.00 0.00 0.00 0.00
0.00 0.00 0.00 0.00 0.00 0.00 0.00 0.00 0.00 0.00 0.00 0.00 0.00 0.00 0.00 0.00 0.00 0.00 0.00 0.00 0.00 0.00 0.00 0.00 0.00 0.00 0.00 0.00 0.00 0.00 0.00 0.00 0.00 0.00 0.00 0.00 0.00 0.00 0.00 0.00 0.00 0.00 0.00 0.00 0.00
0.00 0.00 0.00 0.00 0.00 0.00 0.00 0.00 0.00 0.00 0.00 0.00 0.00 0.00 0.00 0.00 0.00 0.00 0.00 0.00 0.00 0.00 0.00 0.00 0.00 0.00 0.00 0.00 0.00 0.00 0.00 0.00 0.00 0.00 0.00 0.00 0.00 0.00 0.00 0.00 0.00 0.00 0.00 0.00 0.00
0.00 0.00 0.00 0.00 0.00 0.00 0.00 0.00 0.00 0.00 0.00 0.00 0.00 0.00 0.00 0.00 0.00 0.00 0.00 0.00 0.00 0.00 0.00 0.00 0.00 0.00 0.00 0.00 0.00 0.00 0.00 0.00 0.00 0.00 0.00 0.00 0.00 0.00 0.00 0.00 0.00 0.00 0.00 0.00 0.00
0.00 0.00 0.00 0.00 0.00 0.00 0.00 0.00 0.00 0.00 0.00 0.00 0.00 0.00 0.00 0.00 0.00 0.00 0.00 0.00 0.00 0.00 0.00 0.00 0.00 0.00 0.00 0.00 0.00 0.00 0.00 0.00 0.00 0.00 0.00 0.00 0.00 0.00 0.00 0.00 0.00 0.00 0.00 0.00 0.00
0.00 0.00 0.00 0.00 0.00 0.00 0.00 0.00 0.00 0.00 0.00 0.00 0.00 0.00 0.00 0.00 0.00 0.00 0.00 0.00 0.00 0.00 0.00 0.00 0.00 0.00 0.00 0.00 0.00 0.00 0.00 0.00 0.00 0.00 0.00 0.00 0.00 0.00 0.00 0.00 0.00 0.00 0.00 0.00 0.00
0.00 0.00 0.00 0.00 0.00 0.00 0.00 0.00 0.00 0.00 0.00 0.00 0.00 0.00 0.00 0.00 0.00 0.00 0.00 0.00 0.00 0.00 0.00 0.00 0.00 0.00 0.00 0.00 0.00 0.00 0.00 0.00 0.00 0.00 0.00 0.00 0.00 0.00 0.00 0.00 0.00 0.00 0.00 0.00 0.00
0.00 0.00 0.00 0.00 0.00 0.00 0.00 0.00 0.00 0.00 0.00 0.00 0.00 0.00 0.00 0.00 0.00 0.00 0.00 0.00 0.00 0.00 0.00 0.00 0.00 0.00 0.00 0.00 0.00 0.00 0.00 0.00 0.00 0.00 0.00 0.00 0.00 0.00 0.00 0.00 0.00 0.00 0.00 0.00 0.00
0.00 0.00 0.00 0.00 0.00 0.00 0.00 0.00 0.00 0.00 0.00 0.00 0.00 0.00 0.00 0.00 0.00 0.00 0.00 0.00 0.00 0.00 0.00 0.00 0.00 0.00 0.00 0.00 0.00 0.00 0.00 0.00 0.00 0.00 0.00 0.00 0.00 0.00 0.00 0.00 0.00 0.00 0.00 0.00 0.00
0.00 0.00 0.00 0.00 0.00 0.00 0.00 0.00 0.00 0.00 0.00 0.00 0.00 0.00 0.00 0.00 0.00 0.00 0.00 0.00 0.00 0.00 0.00 0.00 0.00 0.00 0.00 0.00 0.00 0.00 0.00 0.00 0.00 0.00 0.00 0.00 0.00 0.00 0.00 0.00 0.00 0.00 0.00 0.00 0.00
0.00 0.00 0.00 0.00 0.00 0.00 0.00 0.00 0.00 0.00 0.00 0.00 0.00 0.00 0.00 0.00 0.00 0.00 0.00 0.00 0.00 0.00 0.00 0.00 0.00 0.00 0.00 0.00 0.00 0.00 0.00 0.00 0.00 0.00 0.00 0.00 0.00 0.00 0.00 0.00 0.00 0.00 0.00 0.00 0.00
0.00 0.00 0.00 0.00 0.00 0.00 0.00 0.00 0.00 0.00 0.00 0.00 0.00 0.00 0.00 0.00 0.00 0.00 0.00 0.00 0.00 0.00 0.00 0.00 0.00 0.00 0.00 0.00 0.00 0.00 0.00 0.00 0.00 0.00 0.00 0.00 0.00 0.00 0.00 0.00 0.00 0.00 0.00 0.00 0.00
0.00 0.00 0.00 0.00 0.00 0.00 0.00 0.00 0.00 0.00 0.00 0.00 0.00 0.00 0.00 0.00 0.00 0.00 0.00 0.00 0.00 0.00 0.00 0.00 0.00 0.00 0.00 0.00 0.00 0.00 0.00 0.00 0.00 0.00 0.00 0.00 0.00 0.00 0.00 0.00 0.00 0.00 0.00 0.00 0.00
0.00 0.00 0.00 0.00 0.00 0.00 0.00 0.00 0.00 0.00 0.00 0.00 0.00 0.00 0.00 0.00 0.00 0.00 0.00 0.00 0.00 0.00 0.00 0.00 0.00 0.00 0.00 0.00 0.00 0.00 0.00 0.00 0.00 0.00 0.00 0.00 0.00 0.00 0.00 0.00 0.00 0.00 0.00 0.00 0.00
MSLP
1020.05 1020.01 1019.80 1019.74 1019.86 1019.55 1019.52 1019.42 1019.24 1018.88 1018.81 1018.49 1018.09 1017.79 1017.46 1017.18 1016.86 1016.93 1016.94 1016.89 1016.86 1016.55 1016.60 1016.72 1016.80 1017.11 1017.47 1018.50 1019.02 1019.55 1020.18 1020.53 1020.44 1020.88 1020.32 1020.90 1021.26 1021.37 1021.57 1021.95 1022.43 1022.47 1022.74 1023.48 1024.35
1020.03 1019.94 1019.64 1019.74 1019.71 1019.37 1019.35 1019.29 1019.23 1018.84 1018.63 1018.19 1017.89 1017.51 1017.40 1017.14 1016.86 1016.89 1016.66 1016.47 1016.42 1016.27 1016.40 1016.61 1016.96 1017.26 1018.11 1018.79 1019.34 1019.75 1020.43 1020.10 1019.81 1020.03 1020.23 1020.63 1021.06 1021.08 1021.53 1021.73 1021.94 1022.28 1023.10 1023.92 1024.59
1019.83 1019.50 1019.55 1019.64 1019.57 1019.32 1019.17 1019.13 1019.12 1018.76 1018.35 1018.05 1017.60 1017.37 1017.09 1017.20 1016.92 1016.76 1016.44 1016.35 1016.26 1016.21 1016.41 1016.62 1016.99 1017.43 1018.29 1018.93 1019.60 1019.93 1020.01 1019.92 1019.77 1019.95 1020.25 1020.61 1020.82 1020.77 1020.89 1020.99 1020.43 1020.74 1021.95 1023.51 1024.30
1019.63 1019.49 1019.43 1019.41 1019.45 1019.16 1018.96 1019.02 1019.01 1018.61 1018.05 1017.73 1017.49 1017.37 1016.97 1017.04 1017.22 1016.51 1016.33 1016.37 1016.33 1016.29 1016.52 1016.84 1017.25 1017.84 1018.51 1019.13 1019.60 1020.12 1019.81 1019.96 1019.93 1020.12 1020.45 1020.59 1020.47 1020.39 1020.17 1018.96 1019.19 1019.68 1020.69 1022.37 1023.16
1019.34 1019.20 1019.35 1019.37 1019.09 1018.85 1018.92 1018.80 1018.70 1018.39 1017.88 1017.57 1017.34 1017.19 1016.95 1017.25 1016.79 1016.33 1016.25 1016.33 1016.39 1016.45 1016.90 1017.03 1017.46 1018.07 1018.82 1019.23 1019.69 1020.07 1020.05 1020.13 1019.97 1020.11 1020.31 1020.41 1020.20 1020.02 1018.92 1018.97 1019.37 1019.86 1020.72 1021.23 1021.91
1019.30 1018.96 1019.15 1018.89 1018.85 1018.75 1018.76 1018.52 1018.38 1018.04 1017.63 1017.47 1017.29 1017.02 1017.21 1017.07 1016.21 1016.24 1016.25 1016.31 1016.55 1016.65 1017.17 1017.23 1017.61 1018.11 1018.99 1019.52 1019.90 1020.09 1020.15 1020.11 1020.08 1020.07 1020.16 1020.31 1020.06 1020.02 1017.98 1018.14 1018.92 1019.62 1020.04 1020.53 1020.92
1019.26 1019.23 1018.92 1018.75 1018.53 1018.61 1018.54 1018.05 1017.87 1017.79 1017.41 1017.22 1017.13 1017.09 1017.21 1016.59 1016.05 1016.18 1016.19 1016.55 1016.71 1016.85 1017.28 1017.52 1017.73 1018.22 1019.23 1019.83 1020.07 1020.20 1020.22 1020.03 1019.91 1020.03 1020.01 1020.07 1019.83 1018.80 1017.31 1017.97 1018.40 1018.93 1019.35 1019.80 1020.09
1019.17 1019.11 1018.46 1018.26 1018.31 1018.34 1018.20 1017.63 1017.73 1017.49 1017.07 1017.11 1017.18 1017.28 1016.83 1016.08 1016.13 1016.16 1016.35 1016.71 1016.80 1016.89 1017.26 1017.75 1017.85 1018.71 1019.56 1020.21 1020.35 1020.39 1020.47 1020.38 1019.73 1020.04 1020.05 1020.22 1018.25 1016.95 1016.96 1017.51 1017.47 1017.90 1018.38 1018.85 1019.01
1019.00 1018.63 1017.85 1018.05 1018.19 1017.84 1017.76 1017.26 1017.05 1017.04 1016.91 1017.18 1017.29 1017.19 1016.78 1016.01 1016.19 1016.30 1016.39 1016.73 1017.01 1017.20 1017.62 1017.82 1018.24 1019.50 1020.00 1020.39 1020.71 1020.84 1020.66 1020.57 1019.95 1019.88 1020.11 1020.31 1018.19 1016.76 1016.71 1017.02 1016.61 1016.72 1016.89 1017.37 1017.73
1018.48 1017.99 1017.91 1018.18 1017.92 1017.54 1017.09 1016.74 1016.79 1016.82 1016.99 1016.99 1017.38 1017.34 1016.55 1016.51 1016.31 1016.37 1016.44 1016.51 1016.97 1017.48 1017.95 1018.31 1019.14 1019.84 1020.49 1020.59 1020.77 1020.66 1020.66 1020.32 1020.32 1020.01 1020.17 1019.94 1018.07 1016.27 1016.21 1016.65 1015.83 1015.57 1015.56 1015.80 1016.17
1018.31 1018.22 1018.15 1017.90 1017.38 1017.29 1016.67 1016.67 1017.42 1017.31 1017.13 1016.99 1016.99 1016.65 1016.60 1016.36 1016.36 1016.46 1016.50 1016.69 1016.96 1017.66 1018.33 1018.93 1019.53 1019.85 1019.65 1019.98 1020.07 1020.23 1020.43 1020.43 1019.77 1019.59 1019.92 1018.89 1017.71 1015.74 1014.33 1015.22 1014.51 1013.96 1014.08 1014.35 1014.42
1018.45 1018.25 1017.85 1017.38 1017.13 1017.11 1017.00 1017.36 1018.13 1018.04 1017.47 1016.93 1017.04 1016.65 1016.43 1016.60 1016.63 1016.62 1016.65 1017.04 1017.20 1018.00 1018.53 1019.25 1019.20 1018.98 1019.15 1019.41 1019.89 1020.13 1020.29 1019.98 1019.47 1019.57 1019.85 1018.57 1016.91 1014.64 1013.25 1013.13 1012.72 1012.40 1012.63 1012.81 1013.19
1017.94 1017.80 1017.39 1017.09 1016.94 1017.16 1017.49 1017.98 1018.00 1017.93 1018.04 1017.18 1017.00 1016.46 1016.37 1016.61 1016.79 1016.77 1016.82 1017.07 1017.41 1018.10 1018.53 1019.06 1018.59 1018.66 1018.80 1019.13 1019.67 1019.88 1020.07 1019.89 1020.02 1019.60 1019.53 1018.82 1016.04 1014.32 1012.62 1012.36 1011.93 1011.73 1011.50 1011.76 1011.96
1017.97 1017.65 1017.51 1016.93 1017.31 1017.75 1018.03 1017.97 1018.05 1018.25 1018.24 1017.47 1016.84 1016.52 1016.55 1016.52 1016.98 1016.86 1016.94 1017.16 1017.56 1018.06 1018.48 1018.80 1018.47 1018.61 1018.79 1019.09 1019.36 1019.61 1019.33 1019.70 1019.85 1020.09 1020.06 1019.36 1017.04 1014.72 1012.76 1011.70 1011.35 1010.99 1011.13 1011.10 1011.29
1018.14 1017.63 1017.39 1017.03 1017.68 1017.93 1018.32 1018.12 1018.24 1018.43 1018.50 1017.35 1016.74 1016.34 1016.51 1016.91 1017.07 1017.03 1017.10 1017.11 1017.52 1017.93 1018.67 1018.24 1018.36 1018.51 1018.72 1018.66 1018.94 1019.06 1019.24 1019.70 1019.93 1020.31 1020.46 1019.74 1019.09 1014.23 1013.03 1011.59 1010.89 1010.57 1010.55 1010.65 1010.97
1017.83 1017.57 1017.38 1017.30 1017.57 1018.04 1018.05 1018.09 1018.53 1019.13 1017.87 1017.04 1016.62 1016.57 1016.80 1016.82 1016.91 1017.05 1017.13 1017.24 1017.69 1018.05 1018.44 1018.42 1018.38 1018.39 1018.37 1018.64 1018.96 1019.19 1019.49 1020.04 1020.50 1020.57 1020.60 1019.69 1019.13 1015.10 1013.06 1012.10 1011.02 1010.21 1010.15 1010.39 1010.49
1017.57 1017.32 1017.18 1017.42 1017.97 1017.95 1018.06 1018.75 1019.56 1019.09 1017.71 1017.38 1016.98 1016.94 1017.02 1017.13 1017.16 1017.31 1017.50 1017.83 1018.13 1018.53 1018.84 1018.58 1018.47 1018.43 1018.45 1018.95 1019.29 1019.52 1020.02 1020.35 1020.65 1020.66 1020.14 1019.54 1018.98 1014.71 1012.12 1011.56 1011.39 1011.00 1010.24 1010.10 1010.26
1017.46 1017.44 1017.53 1017.75 1017.89 1018.06 1018.50 1019.36 1019.58 1018.38 1017.74 1017.15 1016.97 1017.10 1017.34 1017.27 1017.45 1017.59 1017.99 1018.19 1018.27 1018.63 1019.21 1019.29 1018.60 1018.57 1018.66 1018.94 1019.32 1019.89 1020.30 1020.84 1021.01 1020.89 1020.12 1019.44 1017.27 1013.40 1011.30 1010.91 1010.60 1010.69 1010.65 1010.25 1010.04
1017.32 1017.71 1018.10 1018.27 1018.02 1018.25 1019.08 1019.95 1019.05 1018.35 1017.67 1017.36 1017.24 1017.27 1017.42 1017.50 1017.77 1017.92 1018.20 1018.37 1018.29 1018.59 1019.15 1019.42 1019.05 1018.88 1019.05 1019.23 1019.64 1020.40 1020.59 1020.67 1020.86 1021.20 1020.73 1018.06 1015.79 1013.10 1010.91 1010.25 1010.13 1009.89 1010.03 1009.81 1009.58
1017.99 1018.31 1018.64 1018.39 1018.27 1018.65 1019.58 1019.81 1019.06 1018.28 1017.73 1017.49 1017.50 1017.61 1017.85 1017.89 1018.19 1018.38 1018.32 1018.21 1018.55 1018.94 1019.03 1019.42 1019.62 1019.29 1019.44 1019.61 1020.06 1020.20 1020.60 1020.98 1021.36 1021.19 1020.25 1017.72 1015.99 1013.36 1011.31 1010.62 1010.17 1010.01 1009.90 1009.66 1009.26
1018.26 1018.87 1018.71 1018.56 1018.33 1019.17 1020.14 1019.80 1018.93 1018.04 1017.72 1017.59 1017.61 1017.87 1018.12 1018.27 1018.32 1018.63 1018.52 1018.47 1018.60 1019.09 1019.28 1019.70 1020.30 1020.05 1019.82 1019.76 1019.79 1020.64 1020.82 1021.34 1021.62 1021.28 1020.34 1018.13 1014.82 1012.50 1011.20 1010.63 1010.70 1010.41 1010.12 1009.73 1009.38
1018.95 1019.54 1018.91 1018.45 1019.40 1020.14 1020.13 1019.37 1018.63 1018.03 1017.80 1017.68 1017.71 1017.90 1018.26 1018.36 1018.65 1018.96 1018.90 1018.64 1018.78 1019.12 1019.76 1020.31 1020.72 1020.61 1019.83 1019.69 1019.73 1019.93 1020.30 1020.70 1021.34 1021.03 1020.13 1018.27 1013.13 1011.20 1010.73 1010.74 1010.84 1010.41 1009.96 1009.61 1009.64
1019.93 1019.71 1019.00 1018.93 1020.06 1020.61 1019.95 1019.26 1018.63 1018.18 1017.91 1017.90 1017.91 1018.19 1018.46 1018.67 1019.04 1018.92 1018.86 1018.80 1019.04 1019.42 1019.70 1020.21 1020.88 1020.91 1020.05 1020.25 1020.04 1020.04 1020.05 1020.12 1020.53 1020.30 1018.48 1017.19 1012.44 1010.59 1010.57 1010.55 1010.75 1010.63 1010.11 1009.97 1009.49
1020.35 1020.46 1020.23 1020.35 1020.50 1020.12 1020.02 1019.37 1018.77 1018.21 1018.08 1018.02 1018.21 1018.49 1018.81 1018.97 1019.07 1019.26 1019.28 1019.21 1019.39 1019.64 1019.87 1020.13 1020.72 1020.73 1020.42 1019.79 1019.66 1020.02 1019.77 1019.83 1019.64 1019.02 1016.63 1014.82 1011.93 1010.67 1010.58 1010.94 1010.93 1010.88 1010.50 1010.20 1009.85
1020.55 1020.73 1020.75 1020.97 1020.77 1020.35 1019.91 1019.54 1019.13 1018.62 1018.38 1018.34 1018.63 1018.71 1019.04 1019.49 1019.54 1019.67 1019.63 1019.72 1019.90 1020.16 1020.53 1020.96 1021.15 1020.79 1020.13 1019.49 1019.46 1018.99 1019.07 1018.61 1018.51 1016.78 1016.25 1012.52 1012.85 1010.91 1010.42 1011.28 1011.24 1011.25 1010.80 1010.68 1010.17
1020.57 1021.01 1021.24 1020.99 1020.73 1020.64 1020.39 1019.90 1019.49 1019.04 1018.92 1018.84 1019.06 1019.12 1019.34 1019.63 1019.48 1019.77 1019.99 1020.14 1020.11 1020.57 1020.90 1021.42 1021.20 1020.99 1020.09 1019.49 1018.84 1018.33 1017.59 1016.95 1016.47 1015.66 1014.69 1012.93 1012.49 1010.68 1011.14 1011.27 1011.38 1010.95 1010.89 1010.68 1010.35
1020.85 1020.85 1020.79 1021.43 1021.40 1021.30 1020.62 1019.84 1019.55 1019.40 1019.27 1019.15 1019.39 1019.65 1019.87 1019.77 1019.78 1019.86 1020.06 1020.19 1020.19 1020.54 1021.32 1021.78 1021.62 1021.64 1019.62 1019.35 1018.88 1017.52 1015.64 1014.94 1014.44 1014.09 1013.40 1012.57 1011.09 1011.59 1011.63 1011.70 1011.48 1010.97 1011.02 1010.75 1010.41
Thickness
5693 5697 5703 5706 5706 5712 5713 5713 5715 5720 5721 5724 5728 5731 5735 5738 5742 5739 5732 5739 5739 5743 5744 5742 5740 5736 5731 5718 5714 5708 5693 5683 5688 5680 5697 5689 5690 5690 5690 5687 5682 5686 5687 5680 5670
5691 5695 5703 5704 5706 5710 5712 5712 5712 5719 5721 5725 5729 5733 5734 5737 5740 5732 5741 5743 5742 5745 5742 5737 5731 5731 5717 5712 5707 5700 5686 5690 5698 5695 5695 5691 5689 5691 5688 5684 5684 5684 5676 5668 5664
5691 5698 5701 5702 5704 5707 5711 5712 5712 5717 5720 5724 5729 5733 5737 5734 5730 5729 5742 5742 5743 5744 5742 5739 5733 5726 5714 5709 5701 5692 5691 5694 5698 5696 5695 5690 5686 5691 5689 5685 5696 5696 5687 5668 5662
5691 5695 5699 5701 5701 5705 5710 5710 5711 5715 5722 5725 5728 5730 5736 5734 5702 5736 5742 5740 5742 5743 5739 5731 5726 5715 5706 5703 5698 5692 5693 5692 5693 5692 5688 5686 5689 5689 5690 5710 5705 5703 5693 5674 5669
5691 5695 5696 5696 5702 5706 5707 5710 5711 5714 5720 5724 5728 5730 5733 5717 5720 5739 5741 5739 5739 5738 5729 5726 5719 5710 5702 5699 5696 5690 5690 5688 5690 5688 5686 5685 5687 5691 5695 5702 5697 5693 5684 5680 5677
5687 5694 5692 5698 5701 5705 5705 5711 5711 5715 5721 5722 5726 5730 5722 5707 5737 5738 5739 5737 5735 5733 5725 5725 5718 5713 5698 5695 5693 5689 5685 5685 5685 5687 5685 5682 5685 5685 5704 5703 5696 5689 5688 5683 5681
5685 5688 5692 5697 5702 5702 5705 5713 5714 5715 5720 5723 5724 5725 5716 5715 5735 5735 5735 5731 5731 5728 5720 5721 5718 5712 5697 5690 5687 5684 5683 5682 5682 5683 5684 5681 5682 5685 5709 5699 5696 5691 5690 5685 5682
5685 5686 5694 5699 5701 5703 5706 5714 5713 5715 5720 5720 5721 5718 5706 5731 5732 5732 5730 5726 5727 5727 5721 5718 5716 5702 5694 5685 5682 5678 5676 5675 5684 5677 5680 5679 5692 5705 5704 5698 5702 5698 5694 5689 5688
5683 5688 5697 5699 5701 5706 5707 5715 5716 5716 5719 5715 5715 5712 5701 5728 5723 5727 5727 5719 5719 5719 5715 5714 5707 5689 5685 5677 5671 5666 5670 5665 5675 5673 5674 5670 5690 5700 5696 5693 5702 5703 5702 5697 5695
5685 5691 5693 5698 5703 5707 5711 5717 5715 5715 5713 5714 5708 5701 5712 5707 5717 5720 5722 5721 5713 5709 5703 5699 5687 5678 5669 5671 5661 5666 5663 5664 5661 5673 5665 5664 5680 5702 5700 5692 5705 5710 5708 5705 5703
5685 5687 5691 5699 5705 5707 5713 5712 5701 5700 5705 5700 5700 5701 5704 5713 5716 5713 5716 5712 5710 5699 5686 5684 5678 5670 5677 5669 5671 5667 5661 5658 5665 5670 5664 5669 5680 5700 5714 5697 5707 5715 5716 5714 5712
5681 5686 5693 5701 5705 5705 5708 5700 5693 5698 5688 5701 5698 5702 5707 5705 5698 5705 5711 5698 5697 5683 5682 5675 5668 5678 5677 5671 5663 5658 5657 5658 5666 5662 5658 5669 5683 5708 5719 5717 5721 5723 5722 5720 5717
5682 5687 5694 5700 5703 5701 5698 5695 5697 5697 5680 5690 5695 5699 5701 5701 5691 5693 5700 5694 5688 5677 5674 5667 5679 5677 5676 5670 5663 5658 5653 5654 5657 5659 5655 5655 5683 5700 5717 5709 5715 5717 5723 5721 5719
5680 5686 5691 5698 5694 5692 5690 5694 5694 5693 5661 5679 5687 5692 5695 5696 5686 5695 5695 5691 5682 5675 5671 5665 5674 5673 5670 5664 5659 5653 5658 5654 5653 5650 5646 5651 5664 5691 5705 5710 5712 5718 5716 5718 5716
5676 5683 5688 5693 5687 5686 5688 5690 5690 5685 5643 5682 5685 5700 5693 5685 5685 5686 5691 5687 5676 5676 5670 5669 5671 5668 5664 5665 5660 5658 5658 5652 5647 5639 5635 5638 5637 5686 5687 5710 5716 5716 5715 5713 5710
5676 5681 5685 5687 5688 5686 5687 5687 5682 5653 5644 5675 5683 5680 5680 5682 5684 5684 5683 5685 5679 5671 5665 5662 5668 5667 5665 5661 5657 5654 5650 5635 5624 5626 5629 5632 5631 5673 5686 5699 5703 5711 5712 5708 5707
5676 5681 5682 5683 5679 5683 5684 5674 5646 5637 5672 5670 5672 5674 5673 5673 5675 5675 5671 5665 5660 5658 5653 5658 5661 5662 5663 5655 5650 5645 5634 5629 5633 5632 5637 5622 5620 5670 5693 5693 5690 5694 5701 5700 5695
5673 5675 5677 5677 5678 5678 5673 5654 5639 5657 5657 5674 5672 5669 5665 5668 5668 5667 5661 5654 5656 5654 5641 5642 5652 5656 5655 5653 5647 5636 5630 5620 5614 5619 5624 5612 5632 5673 5689 5688 5685 5683 5680 5679 5685
5670 5670 5668 5669 5672 5672 5655 5632 5640 5649 5666 5665 5666 5660 5660 5662 5661 5659 5655 5650 5654 5648 5643 5633 5644 5648 5646 5644 5639 5626 5620 5619 5609 5591 5592 5621 5642 5671 5687 5689 5686 5685 5677 5679 5680
5660 5659 5658 5663 5665 5662 5643 5635 5646 5654 5663 5663 5656 5657 5651 5652 5651 5649 5650 5654 5652 5643 5643 5640 5628 5640 5637 5635 5626 5626 5617 5612 5594 5599 5596 5611 5616 5649 5668 5673 5677 5674 5673 5675 5678
5652 5647 5651 5655 5659 5644 5630 5630 5643 5654 5658 5656 5652 5648 5644 5645 5645 5641 5646 5648 5645 5637 5635 5629 5620 5630 5629 5625 5625 5608 5605 5594 5589 5585 5592 5588 5610 5650 5661 5661 5652 5654 5658 5661 5664
5638 5632 5646 5651 5633 5614 5625 5636 5648 5652 5652 5652 5651 5645 5641 5641 5637 5631 5632 5638 5637 5632 5628 5617 5603 5607 5624 5620 5618 5613 5605 5597 5589 5589 5573 5576 5613 5664 5655 5646 5635 5645 5650 5651 5647
5624 5627 5639 5641 5620 5617 5627 5637 5641 5645 5644 5642 5643 5640 5637 5634 5628 5628 5633 5634 5630 5627 5619 5614 5602 5595 5609 5611 5607 5604 5599 5594 5579 5572 5586 5589 5628 5650 5641 5640 5631 5627 5636 5635 5633
5617 5620 5622 5619 5616 5624 5627 5632 5635 5640 5639 5637 5636 5633 5627 5625 5622 5621 5622 5623 5621 5620 5615 5610 5596 5603 5601 5606 5604 5594 5594 5585 5587 5577 5607 5598 5620 5645 5637 5621 5617 5618 5622 5619 5616
5606 5615 5613 5612 5616 5619 5623 5625 5624 5626 5629 5628 5623 5621 5618 5612 5612 5606 5608 5611 5608 5607 5601 5594 5588 5585 5591 5597 5589 5594 5587 5592 5582 5602 5583 5619 5607 5628 5625 5606 5601 5604 5602 5598 5603
5604 5604 5595 5601 5607 5609 5608 5611 5610 5615 5618 5617 5613 5612 5607 5602 5604 5603 5601 5601 5600 5594 5590 5574 5582 5579 5580 5586 5587 5580 5588 5596 5591 5594 5590 5598 5593 5620 5606 5597 5594 5602 5591 5590 5588
5589 5590 5597 5590 5589 5594 5596 5604 5605 5607 5609 5609 5605 5601 5598 5597 5598 5597 5593 5594 5595 5591 5578 5567 5569 5561 5593 5580 5571 5571 5593 5599 5596 5587 5591 5586 5609 5591 5586 5580 5583 5589 5578 5579 5579